Location: Melbourne
(37.8666°S, 145.1333°E)
Time: 07:07:12
(UTC+11:00)

Iridium 21 - Pass Details

Date: 29 November 2017
Orbit: 776 x 779 km, 86.4° (Epoch: 12 December)

Event Time Altitude Azimuth Distance (km) Brightness Sun altitude
Rises 05:14:36 0° 157° (SSE) 3,298 9.9 -7.1°
Reaches altitude 10° 05:19:54 10° 112° (ESE) 2,354 9.7 -6.2°
Maximum altitude 05:20:21 10° 107° (ESE) 2,346 9.5 -6.2°
Drops below altitude 10° 05:20:49 10° 102° (ESE) 2,352 9.4 -6.1°
Sets 05:26:03 0° 58° (ENE) 3,263 9.1 -5.2°
